Bavaria

Go HERE for most recent data if this page is not up to date.

Jump to table bottom
Date Time Temp F RH % AVG Wind Max Wind Wind Dir 24 Snow Depth
03/04 20:00 3.1 81 2 6 W - 267 1.4 52.7
03/04 19:00 4.5 80 3 9 SW - 244 0.7 52.3
03/04 18:00 4.2 81 3 11 N - 347 0.3 52.0
03/04 17:00 6.4 78 2 5 SW - 215 -0.0 51.0
03/04 16:00 7.2 78 3 7 W - 288 -0.1 51.2
03/04 15:00 8.6 79 2 4 W - 277 0.1 50.5
03/04 14:00 11.7 66 2 5 SW - 239 -0.2 49.8
03/04 13:00 15.0 62 2 5 S - 194 -0.3 49.8
03/04 12:00 15.1 61 3 9 S - 161 -0.3 49.7
03/04 11:00 15.6 65 2 6 S - 188 -0.3 50.5
03/04 10:00 13.6 65 2 7 S - 175 -0.0 51.3
03/04 09:00 7.9 73 2 7 W - 277 0.2 51.7
03/04 08:00 2.9 76 0 3 S - 194 0.3 51.6
03/04 07:00 0.4 76 2 8 NW - 295 0.2 51.1
03/04 06:00 1.4 78 2 5 W - 271 0.1 50.9
03/04 05:00 2.1 79 2 5 W - 269 0.2 51.0
03/04 04:00 2.0 79 2 8 NW - 298 0.2 51.1
03/04 03:00 2.7 80 2 6 W - 277 0.2 52.0
03/04 02:00 2.3 80 2 7 W - 277 0.3 51.7
03/04 01:00 1.5 80 1 5 SW - 221 0.2 51.9
03/04 00:00 1.1 79 1 4 NW - 299 0.1 51.9
03/03 23:00 2.1 76 1 3 W - 254 0.3 51.9
03/03 22:00 1.3 77 0 3 W - 289 0.2 51.7
03/03 21:00 3.3 76 2 4 W - 264 0.2 51.6
03/03 20:00 2.8 70 2 8 W - 266 0.2 51.4
03/03 19:00 3.4 78 2 5 W - 276 0.2 51.3
03/03 18:00 4.5 75 1 3 SW - 240 0.0 50.9
03/03 17:00 9.3 70 1 4 SW - 232 -0.0 51.1
03/03 16:00 12.1 70 2 4 SW - 225 -0.1 50.9
03/03 15:00 14.3 71 2 5 NW - 294 -0.5 50.1
03/03 14:00 14.0 77 3 9 NW - 296 -0.6 50.0
03/03 13:00 18.1 74 2 4 S - 202 -0.6 50.1
03/03 12:00 19.0 81 2 4 W - 277 -0.6 152.5
03/03 11:00 16.4 76 2 5 W - 269 9.3 152.5
03/03 10:00 14.9 83 1 5 W - 274 9.7 152.5
03/03 09:00 10.1 82 2 6 W - 269 10.0 51.5
03/03 08:00 1.8 81 3 6 S - 197 10.1 -7.4
03/03 07:00 0.1 81 3 9 W - 265 10.2 -7.6
03/03 06:00 1.2 81 3 6 SW - 225 10.3 -7.8
03/03 05:00 1.1 81 3 11 W - 270 10.4 -7.8
03/03 04:00 2.2 81 3 8 W - 289 10.6 -8.2
03/03 03:00 3.2 82 4 8 NW - 298 10.5 -8.5
03/03 02:00 4.7 82 4 10 SW - 238 9.9 -8.8
03/03 01:00 5.1 83 4 10 SW - 217 9.1 52.8
03/03 00:00 5.3 83 4 8 W - 253 7.6 -8.9
.